Date,TemperatureHighF,TemperatureAvgF,TemperatureLowF,DewpointHighF,DewpointAvgF,DewpointLowF,HumidityHigh,HumidityAvg,HumidityLow,PressureMaxIn,PressureMinIn,WindSpeedMaxMPH,WindSpeedAvgMPH,GustSpeedMaxMPH,PrecipitationSumIn
2013-1-5,48,48,48,44,44,44,83,83,83,29.33,29.33,8,8,11,0.00
2013-4-2,36,36,36,25,25,25,54,54,54,29.21,29.21,6,6,8,0.00
2013-4-11,48,46,43,39,38,37,74,67,62,29.31,29.31,5,3,8,0.08
2013-5-2,87,72,63,67,61,56,97,63,38,29.43,29.23,8,5,14,0.09
2013-5-3,82,67,57,68,61,54,96,77,45,29.28,29.20,8,3,11,0.09
2013-5-4,74,63,52,59,55,51,96,72,50,29.44,29.27,10,4,15,0.00
2013-5-5,82,68,55,60,57,52,88,62,38,29.54,29.45,8,2,11,0.00
2013-5-6,80,68,63,65,58,52,95,68,40,29.51,29.41,8,4,14,0.07
2013-5-7,78,66,59,65,62,59,99,82,54,29.45,29.36,8,3,12,0.07
2013-5-8,82,69,60,63,60,58,98,68,38,29.43,29.35,4,2,7,0.02
2013-5-9,82,71,61,61,57,52,80,56,32,29.44,29.38,8,3,12,0.01
2013-5-10,82,71,59,58,55,51,76,50,30,29.40,29.22,15,4,21,0.01
2013-5-11,72,64,57,63,59,56,96,80,63,29.25,29.14,12,5,17,0.01
2013-5-12,63,58,54,56,53,49,96,79,68,29.18,29.11,19,11,29,1.41
2013-5-13,65,57,51,50,47,43,81,64,41,29.33,29.18,24,11,31,3.04
2013-5-14,70,58,49,52,48,45,89,66,43,29.33,29.28,14,5,20,0.01
2013-5-15,78,64,51,57,53,49,91,64,39,29.28,29.16,7,2,8,0.00
2013-5-16,81,68,53,59,55,51,89,59,31,29.20,29.05,11,4,14,0.00
2013-5-17,72,66,56,62,60,56,99,77,60,29.10,29.04,10,4,14,0.07
2013-5-18,78,66,54,58,55,53,99,65,33,29.33,29.14,12,4,18,0.11
2013-5-19,85,71,55,59,56,52,95,56,30,29.33,29.12,10,4,14,0.04
2013-5-20,76,65,53,60,54,49,98,63,32,29.33,29.19,8,2,11,0.04
2013-5-21,75,64,53,53,50,46,83,55,29,29.33,29.20,14,4,20,0.01
2013-5-22,74,62,55,60,52,48,90,64,37,29.21,29.04,11,3,14,0.01
2013-5-23,66,58,51,52,48,44,81,63,51,29.09,28.95,16,8,20,0.07
2013-5-24,68,58,50,51,48,44,80,60,44,29.13,28.99,8,3,11,0.01
2013-5-25,69,58,50,51,48,47,91,65,39,29.16,29.10,8,3,12,0.00
2013-5-26,64,57,50,52,47,41,94,64,38,29.18,29.09,11,4,15,0.05
2013-5-27,61,53,47,48,45,40,90,67,50,29.22,29.16,13,4,21,0.00
2013-5-28,71,60,50,55,51,45,88,68,41,29.21,29.08,11,4,21,0.00
2013-5-29,80,66,52,60,56,51,97,65,37,29.09,28.93,7,2,11,0.00
2013-5-30,67,57,52,61,55,51,99,90,70,28.97,28.87,9,2,11,0.48
2013-5-31,66,56,49,55,51,49,99,80,52,29.01,28.92,10,3,14,0.04
2013-6-1,71,57,48,55,52,48,99,81,49,29.10,29.00,6,2,10,0.11
2013-6-2,72,59,51,58,54,50,98,81,50,29.25,29.09,14,3,20,0.40
2013-6-3,61,56,52,54,52,50,94,83,71,29.32,29.24,17,11,27,0.05
2013-6-4,69,58,52,60,54,50,95,84,66,29.32,29.23,16,9,26,0.07
2013-6-5,73,62,55,61,58,54,97,83,52,29.42,29.31,6,2,8,0.04
2013-6-6,76,64,55,65,59,54,97,81,56,29.47,29.41,8,2,12,0.25
2013-6-7,85,70,59,63,60,57,95,65,30,29.44,29.35,7,2,9,0.01
2013-6-8,88,75,64,61,59,57,79,53,27,29.38,29.30,8,3,9,0.24
2013-6-10,84,75,62,64,62,60,97,59,38,29.18,29.07,9,4,12,0.18
2013-6-11,75,67,57,61,59,52,88,70,52,29.27,29.19,8,4,13,0.08
2013-6-12,81,68,53,61,57,51,91,62,36,29.46,29.27,8,2,11,0.01
2013-6-13,87,75,62,59,56,52,68,45,26,29.49,29.39,9,3,14,0.00
2013-6-14,88,77,63,64,60,55,74,51,29,29.42,29.36,9,3,15,0.00
2013-6-15,67,65,63,61,60,60,87,81,74,29.39,29.36,4,1,5,0.00
2013-6-17,98,90,78,69,67,66,60,41,29,29.44,29.38,8,2,10,0.00
2013-6-18,100,87,71,71,68,64,82,48,24,29.44,29.36,7,2,9,0.00
2013-6-19,101,90,74,72,66,50,68,42,12,29.41,29.34,8,2,9,0.00
2013-6-20,101,88,76,74,70,68,72,51,30,29.40,29.28,8,4,11,0.00
2013-6-21,100,88,75,75,70,68,85,53,29,29.32,29.27,6,2,8,0.00
2013-6-22,89,80,74,74,71,69,83,70,51,29.33,29.29,4,1,5,0.00
2013-6-24,76,66,57,64,60,56,99,79,60,29.25,29.16,15,8,22,0.52
2013-6-25,61,58,56,58,56,52,97,89,81,29.41,29.20,11,5,15,0.52
2013-6-26,67,59,54,54,52,50,83,71,55,29.58,29.41,17,10,25,0.02
2013-6-27,72,60,52,57,53,49,90,74,47,29.58,29.49,12,5,18,0.20
2013-6-28,77,64,56,59,57,54,95,75,41,29.49,29.40,7,2,10,0.47
2013-6-29,79,68,57,58,55,48,91,59,27,29.42,29.31,11,3,14,0.01
2013-6-30,78,66,57,58,54,48,81,58,34,29.44,29.35,22,7,34,0.00
2013-7-1,71,59,52,51,49,47,80,63,40,29.50,29.44,8,4,13,0.00
2013-7-2,88,79,67,57,54,49,59,35,21,29.51,29.41,4,2,8,0.00
2013-7-3,73,66,61,59,55,53,74,62,50,29.44,29.41,3,1,5,0.00
2013-7-8,89,84,73,64,61,58,52,39,31,29.66,29.56,7,2,10,0.00
2013-7-9,72,71,70,59,58,58,60,57,53,29.61,29.60,4,4,9,0.00
2013-7-10,91,85,74,64,60,57,53,36,28,29.35,29.21,8,3,12,0.00
2013-7-11,80,72,63,63,59,52,77,58,34,29.35,29.19,13,6,18,0.00
2013-7-12,78,68,57,57,55,53,82,58,36,29.43,29.36,11,6,17,0.00
2013-7-13,79,70,58,58,56,54,82,55,34,29.45,29.40,11,5,16,0.00
2013-7-14,85,73,63,57,55,51,67,47,26,29.44,29.37,14,6,18,0.00
2013-7-15,80,71,63,62,56,49,70,52,25,29.48,29.38,14,5,21,0.00
2013-7-16,87,74,58,56,53,50,74,43,21,29.57,29.49,6,3,11,0.00
2013-7-17,91,77,63,60,57,54,72,44,21,29.58,29.49,5,2,8,0.00
2013-7-18,94,80,67,63,60,58,68,45,25,29.54,29.46,7,2,11,0.00
2013-7-19,93,80,71,66,62,60,67,49,29,29.48,29.34,4,2,12,0.00
2013-7-20,88,80,70,64,59,55,58,43,25,29.44,29.33,12,6,16,0.00
2013-7-21,90,76,65,56,52,50,54,36,18,29.51,29.44,8,2,11,0.00
2013-7-22,92,77,62,59,56,54,68,42,21,29.51,29.33,9,2,12,0.00
2013-7-23,92,82,66,64,55,47,64,35,14,29.32,29.25,8,3,11,0.00
2013-7-24,93,82,69,59,49,32,60,27,10,29.35,29.28,10,3,14,0.00
2013-7-25,91,78,68,64,57,46,62,40,25,29.39,29.32,5,2,8,0.00
2013-7-26,96,83,68,65,62,59,72,43,22,29.40,29.31,9,2,15,0.00
2013-7-27,100,86,71,69,65,62,70,45,24,29.35,29.27,6,2,9,0.00
2013-7-28,101,88,73,69,63,50,77,41,12,29.36,29.30,10,3,14,0.00
2013-7-29,104,89,76,69,65,58,54,38,22,29.35,29.19,10,4,16,0.00
2013-7-30,82,76,68,68,61,55,89,55,33,29.41,29.25,21,9,30,0.06
2013-7-31,88,77,66,62,59,55,75,48,28,29.44,29.37,10,5,14,0.01
2013-8-1,96,81,70,63,60,58,62,44,21,29.46,29.40,7,3,17,0.00
2013-8-2,98,84,68,65,62,59,74,43,20,29.48,29.36,8,2,11,0.00
2013-8-3,103,88,69,68,61,50,78,38,11,29.40,29.33,8,2,11,0.00
2013-8-4,102,87,77,65,62,50,53,36,11,29.49,29.37,7,3,12,0.00
2013-8-5,100,85,72,67,64,60,69,45,20,29.51,29.38,8,3,13,0.00
2013-8-6,104,88,72,68,64,50,69,40,11,29.43,29.32,7,2,11,0.00
2013-8-7,103,89,75,68,61,50,62,35,11,29.36,29.29,8,2,11,0.00
2013-8-8,106,89,76,65,60,49,51,33,10,29.37,29.30,7,2,11,0.00
2013-8-9,104,91,78,69,59,49,55,31,10,29.33,29.18,9,2,15,0.00